Weather History for KBOI - March, 2013

Change the Weather History Date:

Tuesday, March 5, 2013

  Actual Average Record
Temperature  
Mean Temperature 41 °F 42 °F  
Max Temperature 54 °F 51 °F 67 °F (1986)
Min Temperature 28 °F 32 °F 10 °F (1955)
Degree Days  
Heating Degree Days 24 23  
Month to date heating degree days 117 119  
Since 1 July heating degree days 4214 4278  
Cooling Degree Days 0 0  
Month to date cooling degree days 0 0  
Year to date cooling degree days 0 0  
Moisture  
Dew Point 19 °F    
Average Humidity 45    
Maximum Humidity 63    
Minimum Humidity 26    
Precipitation  
Precipitation 0.00 in 0.04 in 0.52 in (1930)
Month to date precipitation 0.02 0.21  
Year to date precipitation 1.86 2.44  
Snow  
Snow 0.00 in 0.10 in 2.00 in (1951)
Month to date snowfall 0.0 0.3  
Since 1 July snowfall 15.7 17.9  
Snow Depth 0.00 in    
Sea Level Pressure  
Sea Level Pressure 29.98 in    
Wind  
Wind Speed 15 mph (SSE)    
Max Wind Speed 26 mph    
Max Gust Speed 33 mph    
Visibility 10 miles    
Events      
T = Trace of Precipitation, MM = Missing Value Source: NWS Daily Summary

Daily Weather History Graph

Daily Weather History Graph

Search for Another Location

Airport or City:

Trip Planner

Search our weather history database for the weather conditions in past years. The results will help you decide how hot, cold, wet, or windy it might be!

Date:

Astronomy

Mar. 05, 2013 Rise Set
Actual Time 7:14 AM MST 6:39 PM MST
Civil Twilight 6:45 AM MST 7:07 PM MST
Nautical Twilight 6:12 AM MST 7:41 PM MST
Astronomical Twilight 5:39 AM MST 8:14 PM MST
Moon 2:38 AM MST (3/5) 12:14 PM MST (3/5)
Length of Visible Light 12h 22m
Length of Day
11h 25m
Last Quarter, 40% of the Moon is Illuminated
Mar 5
Last Quarter
Mar 11
New
Mar 19
First Quarter
Mar 27
Full
Apr 2
Last Quarter

Hourly Weather History & Observations

Time (MST) Temp. Windchill Dew Point Humidity Pressure Visibility Wind Dir Wind Speed Gust Speed Precip Events Conditions
12:53 AM 35.1 °F 27.9 °F 12.9 °F 40% 30.14 in 10.0 mi South 9.2 mph - N/A   Clear
1:53 AM 28.9 °F 18.6 °F 16.0 °F 58% 30.16 in 10.0 mi South 12.7 mph - N/A   Clear
2:53 AM 30.0 °F 19.5 °F 16.0 °F 56% 30.14 in 10.0 mi South 13.8 mph - N/A   Clear
3:53 AM 30.0 °F 18.7 °F 16.0 °F 56% 30.12 in 10.0 mi South 16.1 mph - N/A   Clear
4:53 AM 30.9 °F 21.7 °F 17.1 °F 57% 30.11 in 10.0 mi SSE 11.5 mph - N/A   Clear
5:53 AM 30.2 °F 21.9 °F 17.6 °F 60% 30.06 in 10.0 mi South 9.2 mph - N/A   Clear
6:53 AM 28.9 °F 18.2 °F 17.1 °F 61% 30.11 in 10.0 mi South 13.8 mph - N/A   Clear
7:53 AM 28.9 °F 18.2 °F 17.1 °F 61% 30.11 in 10.0 mi SSE 13.8 mph - N/A   Clear
8:53 AM 33.1 °F 23.4 °F 18.0 °F 54% 30.11 in 10.0 mi South 13.8 mph - N/A   Clear
9:53 AM 37.0 °F 28.1 °F 18.0 °F 46% 30.09 in 10.0 mi South 15.0 mph - N/A   Clear
10:53 AM 44.1 °F 36.8 °F 17.1 °F 34% 30.06 in 10.0 mi South 16.1 mph - N/A   Scattered Clouds
11:53 AM 48.0 °F - 16.0 °F 28% 30.01 in 10.0 mi SSE 20.7 mph 27.6 mph N/A   Clear
12:53 PM 50.0 °F - 18.0 °F 28% 29.98 in 10.0 mi SE 17.3 mph 25.3 mph N/A   Clear
1:53 PM 51.1 °F - 19.0 °F 28% 29.95 in 10.0 mi SSE 24.2 mph 31.1 mph N/A   Clear
2:53 PM 54.0 °F - 19.9 °F 26% 29.91 in 10.0 mi SSE 20.7 mph 29.9 mph N/A   Clear
3:53 PM 53.1 °F - 19.9 °F 27% 29.90 in 10.0 mi SSE 19.6 mph 27.6 mph N/A   Clear
4:53 PM 52.0 °F - 21.9 °F 31% 29.88 in 10.0 mi SSE 15.0 mph - N/A   Clear
5:53 PM 51.1 °F - 23.0 °F 33% 29.87 in 10.0 mi SSE 15.0 mph - N/A   Overcast
6:53 PM 46.9 °F - 25.0 °F 42% 29.87 in 10.0 mi SSE 11.5 mph - N/A   Partly Cloudy
7:53 PM 44.1 °F 38.6 °F 26.1 °F 49% 29.85 in 10.0 mi South 10.4 mph - N/A   Clear
8:53 PM 42.1 °F 35.7 °F 24.1 °F 49% 29.83 in 10.0 mi South 11.5 mph - N/A   Clear
9:53 PM 39.9 °F 32.5 °F 23.0 °F 51% 29.81 in 10.0 mi South 12.7 mph 21.9 mph N/A   Clear
10:53 PM 39.0 °F 30.3 °F 23.0 °F 53% 29.78 in 10.0 mi South 16.1 mph - N/A   Mostly Cloudy
11:53 PM 39.0 °F 31.0 °F 24.1 °F 55% 29.74 in 10.0 mi SSE 13.8 mph - N/A   Mostly Cloudy